{"data":{"norad_id":64517,"intl_designator":"2025-134T","name":"KUIPER-00057","alt_names":[],"object_type":"PAYLOAD","status":"ACTIVE","operator":null,"country":"US","launch_date":"2025-06-23","launch_site_code":"AFETR","launch_vehicle":null,"mission":null,"orbit_class":"UNKNOWN","rcs_meters":null,"size_class":null,"mass_kg":null,"dimensions":null,"purposes":[],"wikipedia_slug":null,"has_3d_model":false,"image_url":null,"decayed_at":null,"tle_current":{"epoch":"2026-09-21T21:48:09.486432Z","epoch_age_seconds":59573,"freshness":"FRESH","line1":"1 64517U 25134T   26264.90844313  .00001900  00000+0  27814-3 0  9994","line2":"2 64517  51.9007  82.8884 0000659 118.6839 241.4190 14.79938340 69162","mean_motion":14.7993834,"eccentricity":6.59e-5,"inclination_deg":51.9007,"raan_deg":82.8884,"arg_perigee_deg":118.6839,"mean_anomaly_deg":241.419,"bstar":0.00027814,"rev_number":6916,"period_min":97.301351081965,"perigee_km":629.05696765355,"apogee_km":629.98057668432,"semimajor_km":7007.6557721689,"source":"CELESTRAK","updated_at":"2026-09-22T09:00:29.811031Z"}}}